Location: Hohe Wand Kleine Kanzel
(47.8330°N, 16.0170°E)
Time: 00:49:48
(UTC+02:00)

X-37B - Visible Passes

Search period start: 21 June 2021 00:00
Search period end: 01 July 2021 00:00
Orbit: 386 x 389 km, 45.0° (Epoch: 10 June)

Date Brightness Start Highest point End Pass type
(mag) Time Alt. Az. Time Alt. Az. Time Alt. Az.
21 Jun 2.7 01:33:13 18° ESE 01:33:13 18° ESE 01:34:10 10° E visible
21 Jun 1.1 03:05:32 18° WSW 03:07:27 36° SSW 03:10:25 10° SE visible
22 Jun 2.0 02:10:40 25° SE 02:10:40 25° SE 02:12:15 10° ESE visible
22 Jun 2.0 03:43:03 10° WSW 03:45:24 19° SSW 03:47:46 10° SSE visible
22 Jun 2.6 21:57:13 10° S 21:58:28 12° SSE 21:58:53 12° SE visible
23 Jun 3.0 02:49:38 12° SE 02:49:38 12° SE 02:49:59 10° SE visible
23 Jun 1.6 22:33:34 10° SW 22:36:17 26° SSE 22:37:46 18° ESE visible
24 Jun 2.9 00:09:31 10° WSW 00:10:08 15° WSW 00:10:08 15° WSW visible
24 Jun 2.1 21:35:50 10° SSW 21:38:07 18° SSE 21:40:24 10° ESE visible
24 Jun 0.8 23:11:15 10° WSW 23:14:19 44° S 23:15:11 34° SE visible
25 Jun 1.2 22:13:06 10° SW 22:16:02 35° SSE 22:19:00 10° E visible
25 Jun 1.0 23:49:20 10° W 23:51:53 43° SW 23:51:53 43° SW visible
26 Jun 0.7 22:51:02 10° WSW 22:54:08 50° S 22:56:01 20° ESE visible
27 Jun 2.9 00:27:33 10° W 00:28:17 15° WSW 00:28:17 15° WSW visible
27 Jun 0.9 21:52:48 10° WSW 21:55:50 44° S 21:58:54 10° E visible
27 Jun 0.9 23:29:12 10° W 23:32:15 45° S 23:32:17 45° S visible
28 Jun 0.8 22:30:52 10° W 22:33:58 50° S 22:36:14 17° ESE visible
29 Jun 2.8 00:07:32 10° W 00:08:29 16° WSW 00:08:29 16° WSW visible
29 Jun 0.9 21:32:34 10° WSW 21:35:40 50° S 21:38:46 10° E visible
29 Jun 1.2 23:09:05 10° W 23:12:03 36° SSW 23:12:24 35° S visible
30 Jun 1.0 22:10:43 10° W 22:13:47 45° S 22:16:18 14° ESE visible
30 Jun 2.9 23:47:40 10° WSW 23:48:33 14° WSW 23:48:33 14° WSW visible
